Погода в Бихаче

Босния и Герцеговина     44°48′58″N   15°52′49″E
темп.,
°C
ветер,
м/с
пор.,
м/с
влажн.,
%
обл.,
%
осадки,
мм/ч
давл.,
гПа
погр.,
м
1 марта, пн
пн101:000св11913 0.0 103230
04:000ссв11930 0.0 103126
07:00−1ссв11940 0.0 103143
10:00+5ссв24620 0.0 1032627
13:00+7ссв24560 0.0 1031803
16:00+7ссв34640 0.0 1030919
19:00+3св128920 0.0 103235
22:00+2св119279 0.0 103328
2 марта, вт
вт201:000св119340 0.0 103521
04:00−1ссв11950 0.0 103427
07:00−1ссв11981 0.0 103536
10:00+5ссв227327 0.0 1034490
13:00+8ссв225917 0.0 1034707
16:00+8ссв12590 0.0 1033685
19:00+3юв01810 0.0 103422
22:00+2ююз11840 0.0 103422
3 марта, ср
ср301:00+1ююз11840 0.0 103322
04:00+1ююз11800 0.0 103222
07:00+1ю11730 0.0 103222
10:00+9ссв10490 0.0 1031296
13:00+13с11440 0.0 1030562
16:00+11ссв11560 0.0 1028271
19:00+6ю12750 0.0 102822
22:00+4ююз22763 0.0 102829
4 марта, чт
чт401:00+3ююз23674 0.0 102738
04:00+2ююз335975 0.0 102542
07:00+1ююз335785 0.0 102452
10:00+9ююз234496 0.0 1023278
13:00+11юз243998 0.0 1021850
16:00+10ююз2552100 0.0 1019835
19:00+4ююз337983 0.0 101977
22:00+4ююз3489100 0.0 1019135
5 марта, пт
пт501:00+3ююз358776 0.0 1017162
04:00+2ююз35870 0.0 1016154
07:00+2ююз35890 0.0 1016160
10:00+6ююз387958 0.0 1016829
13:00+8юз396979 0.1 10151293
16:00+9юз376533 0.1 10141324
19:00+5ююз239039 0.1 101556
22:00+4ююз239410 0.0 101770